Time,TemperatureF,DewpointF,PressureIn,WindDirection,WindDirectionDegrees,WindSpeedMPH,WindSpeedGustMPH,Humidity,HourlyPrecipIn,Conditions,Clouds,dailyrainin,SoftwareType,DateUTC
2013-08-26 00:13:00,75.0,72.0,30.24,ENE,74,0.0,0.0,90,0.00,,,0.00,,2013-08-26 05:13:00,
2013-08-26 00:23:00,74.0,71.0,30.24,ENE,74,0.0,0.0,91,0.00,,,0.00,,2013-08-26 05:23:00,
2013-08-26 00:43:00,74.0,71.0,30.24,ENE,73,0.0,0.0,91,0.00,,,0.00,,2013-08-26 05:43:00,
2013-08-26 00:52:00,74.0,72.0,30.24,ENE,74,0.0,0.0,92,0.00,,,0.00,,2013-08-26 05:52:00,
2013-08-26 01:12:00,73.0,71.0,30.24,ENE,73,0.0,0.0,92,0.00,,,0.00,,2013-08-26 06:12:00,
2013-08-26 01:21:00,73.0,71.0,30.24,ENE,73,0.0,1.0,93,0.00,,,0.00,,2013-08-26 06:21:00,
2013-08-26 01:42:00,73.0,71.0,30.24,ENE,74,0.0,0.0,93,0.00,,,0.00,,2013-08-26 06:42:00,
2013-08-26 01:52:00,72.0,70.0,30.24,ENE,74,0.0,0.0,94,0.00,,,0.00,,2013-08-26 06:52:00,
2013-08-26 02:11:00,72.0,70.0,30.23,ENE,73,0.0,0.0,94,0.00,,,0.00,,2013-08-26 07:11:00,
2013-08-26 02:22:00,72.0,70.0,30.23,ENE,74,0.0,0.0,94,0.00,,,0.00,,2013-08-26 07:22:00,
2013-08-26 02:42:00,72.0,70.0,30.23,ENE,73,0.0,0.0,95,0.00,,,0.00,,2013-08-26 07:42:00,
2013-08-26 02:52:00,71.0,69.0,30.23,ENE,74,0.0,0.0,95,0.00,,,0.00,,2013-08-26 07:52:00,
2013-08-26 03:12:00,71.0,69.0,30.23,ENE,73,0.0,0.0,95,0.00,,,0.00,,2013-08-26 08:12:00,
2013-08-26 03:22:00,71.0,69.0,30.23,ENE,74,0.0,0.0,95,0.00,,,0.00,,2013-08-26 08:22:00,
2013-08-26 03:42:00,71.0,69.0,30.23,ENE,73,0.0,0.0,95,0.00,,,0.00,,2013-08-26 08:42:00,
2013-08-26 03:52:00,70.0,68.0,30.23,ENE,73,0.0,0.0,95,0.00,,,0.00,,2013-08-26 08:52:00,
2013-08-26 04:11:00,70.0,69.0,30.23,ENE,74,0.0,0.0,96,0.00,,,0.00,,2013-08-26 09:11:00,
2013-08-26 04:21:00,70.0,69.0,30.24,ENE,74,0.0,0.0,96,0.00,,,0.00,,2013-08-26 09:21:00,
2013-08-26 04:43:00,70.0,69.0,30.24,ENE,74,0.0,0.0,96,0.00,,,0.00,,2013-08-26 09:43:00,
2013-08-26 04:54:00,70.0,69.0,30.24,ENE,73,0.0,0.0,96,0.00,,,0.00,,2013-08-26 09:54:00,
2013-08-26 05:12:00,70.0,69.0,30.23,ENE,73,0.0,0.0,96,0.00,,,0.00,,2013-08-26 10:12:00,
2013-08-26 05:23:00,70.0,69.0,30.23,ENE,74,0.0,0.0,96,0.00,,,0.00,,2013-08-26 10:23:00,
2013-08-26 05:42:00,70.0,69.0,30.24,ENE,73,0.0,0.0,96,0.00,,,0.00,,2013-08-26 10:42:00,
2013-08-26 05:52:00,69.0,68.0,30.24,ENE,74,0.0,0.0,96,0.00,,,0.00,,2013-08-26 10:52:00,
2013-08-26 06:12:00,69.0,68.0,30.24,ENE,73,0.0,0.0,96,0.00,,,0.00,,2013-08-26 11:12:00,
2013-08-26 06:22:00,69.0,68.0,30.25,ENE,73,0.0,0.0,96,0.00,,,0.00,,2013-08-26 11:22:00,
2013-08-26 06:52:00,69.0,68.0,30.25,ENE,73,0.0,0.0,97,0.00,,,0.00,,2013-08-26 11:52:00,
2013-08-26 07:12:00,69.0,68.0,30.26,ENE,74,0.0,0.0,97,0.00,,,0.00,,2013-08-26 12:12:00,
2013-08-26 07:21:00,69.0,68.0,30.26,ENE,73,0.0,0.0,97,0.00,,,0.00,,2013-08-26 12:21:00,
2013-08-26 07:52:00,70.0,69.0,30.26,ENE,74,0.0,0.0,97,0.00,,,0.00,,2013-08-26 12:52:00,
2013-08-26 08:12:00,71.0,70.0,30.27,ENE,74,0.0,0.0,98,0.00,,,0.00,,2013-08-26 13:12:00,
2013-08-26 08:21:00,72.0,71.0,30.27,SE,129,0.0,1.0,97,0.00,,,0.00,,2013-08-26 13:21:00,
2013-08-26 08:42:00,73.0,71.0,30.27,SE,132,0.0,1.0,94,0.00,,,0.00,,2013-08-26 13:42:00,
2013-08-26 08:52:00,74.0,71.0,30.27,NE,50,0.0,1.0,89,0.00,,,0.00,,2013-08-26 13:52:00,
2013-08-26 09:11:00,76.0,71.0,30.27,North,9,0.0,1.0,85,0.00,,,0.00,,2013-08-26 14:11:00,
2013-08-26 09:22:00,77.0,70.0,30.27,WSW,238,0.0,2.0,80,0.00,,,0.00,,2013-08-26 14:22:00,
2013-08-26 09:42:00,79.0,71.0,30.28,SE,124,0.0,1.0,77,0.00,,,0.00,,2013-08-26 14:42:00,
2013-08-26 09:52:00,80.0,71.0,30.27,WSW,253,0.0,3.0,74,0.00,,,0.00,,2013-08-26 14:52:00,
2013-08-26 10:12:00,82.0,72.0,30.27,SW,236,0.0,2.0,71,0.00,,,0.00,,2013-08-26 15:12:00,
2013-08-26 10:22:00,83.0,70.0,30.28,SW,221,1.0,2.0,66,0.00,,,0.00,,2013-08-26 15:22:00,
2013-08-26 10:47:00,84.0,71.0,30.28,SW,226,0.0,2.0,65,0.00,,,0.00,,2013-08-26 15:47:00,
2013-08-26 10:59:00,85.0,70.0,30.28,South,176,1.0,3.0,62,0.00,,,0.00,,2013-08-26 15:59:00,
2013-08-26 11:17:00,86.0,71.0,30.28,West,277,0.0,2.0,61,0.00,,,0.00,,2013-08-26 16:17:00,
2013-08-26 11:29:00,87.0,71.0,30.27,ENE,75,0.0,3.0,59,0.00,,,0.00,,2013-08-26 16:29:00,
2013-08-26 11:48:00,88.0,71.0,30.27,ENE,58,1.0,3.0,58,0.00,,,0.00,,2013-08-26 16:48:00,
2013-08-26 11:59:00,88.0,71.0,30.27,WSW,249,0.0,3.0,57,0.00,,,0.00,,2013-08-26 16:59:00,
2013-08-26 12:12:00,89.0,70.0,30.27,SSE,149,0.0,3.0,53,0.00,,,0.00,,2013-08-26 17:12:00,
2013-08-26 12:24:00,91.0,72.0,30.27,ESE,113,0.0,1.0,54,0.00,,,0.00,,2013-08-26 17:24:00,
2013-08-26 12:43:00,91.0,70.0,30.26,West,276,0.0,2.0,51,0.00,,,0.00,,2013-08-26 17:43:00,
2013-08-26 12:53:00,90.0,69.0,30.26,WSW,240,0.0,3.0,51,0.00,,,0.00,,2013-08-26 17:53:00,
2013-08-26 13:12:00,89.0,70.0,30.25,WSW,250,0.0,2.0,54,0.00,,,0.00,,2013-08-26 18:12:00,
2013-08-26 13:22:00,89.0,70.0,30.25,East,86,0.0,1.0,54,0.00,,,0.00,,2013-08-26 18:22:00,
2013-08-26 13:42:00,90.0,71.0,30.24,SW,234,0.0,1.0,53,0.00,,,0.00,,2013-08-26 18:42:00,
2013-08-26 13:52:00,92.0,70.0,30.23,West,260,1.0,2.0,49,0.00,,,0.00,,2013-08-26 18:52:00,
2013-08-26 14:11:00,91.0,70.0,30.23,NE,51,0.0,2.0,51,0.00,,,0.00,,2013-08-26 19:11:00,
2013-08-26 14:22:00,90.0,69.0,30.22,East,79,1.0,2.0,51,0.00,,,0.00,,2013-08-26 19:22:00,
2013-08-26 14:42:00,89.0,71.0,30.22,ENE,75,0.0,6.0,56,0.00,,,0.00,,2013-08-26 19:42:00,
2013-08-26 14:52:00,91.0,70.0,30.21,East,87,0.0,2.0,51,0.00,,,0.00,,2013-08-26 19:52:00,
2013-08-26 15:11:00,91.0,70.0,30.20,SSW,203,0.0,1.0,51,0.00,,,0.00,,2013-08-26 20:11:00,
2013-08-26 15:22:00,92.0,69.0,30.19,East,89,1.0,4.0,48,0.00,,,0.00,,2013-08-26 20:22:00,
2013-08-26 15:43:00,89.0,69.0,30.19,ENE,73,2.0,5.0,52,0.00,,,0.00,,2013-08-26 20:43:00,
2013-08-26 15:52:00,89.0,70.0,30.18,East,95,0.0,3.0,53,0.00,,,0.00,,2013-08-26 20:52:00,
2013-08-26 16:11:00,89.0,69.0,30.18,East,93,0.0,0.0,52,0.00,,,0.00,,2013-08-26 21:11:00,
2013-08-26 16:22:00,90.0,69.0,30.17,ENE,69,1.0,3.0,50,0.00,,,0.00,,2013-08-26 21:22:00,
2013-08-26 16:55:00,88.0,69.0,30.16,ENE,78,0.0,2.0,53,0.00,,,0.00,,2013-08-26 21:55:00,
2013-08-26 17:16:00,87.0,68.0,30.16,ENE,73,0.0,2.0,54,0.00,,,0.00,,2013-08-26 22:16:00,
2013-08-26 17:26:00,87.0,69.0,30.16,ENE,72,0.0,1.0,56,0.00,,,0.00,,2013-08-26 22:26:00,
2013-08-26 17:42:00,88.0,69.0,30.16,ENE,78,1.0,3.0,53,0.00,,,0.00,,2013-08-26 22:42:00,
2013-08-26 17:53:00,88.0,69.0,30.16,East,82,0.0,3.0,53,0.00,,,0.00,,2013-08-26 22:53:00,
2013-08-26 18:12:00,88.0,69.0,30.15,NE,56,1.0,4.0,53,0.00,,,0.00,,2013-08-26 23:12:00,
2013-08-26 18:22:00,88.0,68.0,30.15,East,80,0.0,2.0,52,0.00,,,0.00,,2013-08-26 23:22:00,
2013-08-26 18:52:00,87.0,69.0,30.15,ENE,59,0.0,1.0,55,0.00,,,0.00,,2013-08-26 23:52:00,
2013-08-26 19:11:00,86.0,68.0,30.14,NE,53,0.0,0.0,56,0.00,,,0.00,,2013-08-27 00:11:00,
2013-08-26 19:21:00,85.0,69.0,30.14,East,94,0.0,1.0,58,0.00,,,0.00,,2013-08-27 00:21:00,
2013-08-26 19:42:00,84.0,69.0,30.14,East,94,0.0,0.0,60,0.00,,,0.00,,2013-08-27 00:42:00,
2013-08-26 19:52:00,82.0,67.0,30.14,East,95,0.0,0.0,61,0.00,,,0.00,,2013-08-27 00:52:00,
2013-08-26 20:12:00,81.0,68.0,30.15,East,94,0.0,0.0,65,0.00,,,0.00,,2013-08-27 01:12:00,
2013-08-26 20:22:00,80.0,68.0,30.15,East,94,0.0,0.0,67,0.00,,,0.00,,2013-08-27 01:22:00,
2013-08-26 20:42:00,79.0,69.0,30.15,East,95,0.0,0.0,71,0.00,,,0.00,,2013-08-27 01:42:00,
2013-08-26 20:52:00,78.0,69.0,30.15,East,94,0.0,0.0,73,0.00,,,0.00,,2013-08-27 01:52:00,
2013-08-26 21:12:00,77.0,68.0,30.15,East,94,0.0,0.0,75,0.00,,,0.00,,2013-08-27 02:12:00,
2013-08-26 21:21:00,76.0,68.0,30.16,East,95,0.0,0.0,77,0.00,,,0.00,,2013-08-27 02:21:00,
2013-08-26 21:42:00,76.0,69.0,30.16,East,94,0.0,0.0,79,0.00,,,0.00,,2013-08-27 02:42:00,
2013-08-26 21:52:00,75.0,68.0,30.16,East,94,0.0,0.0,80,0.00,,,0.00,,2013-08-27 02:52:00,
2013-08-26 22:12:00,75.0,69.0,30.15,East,95,0.0,0.0,82,0.00,,,0.00,,2013-08-27 03:12:00,
2013-08-26 22:22:00,74.0,68.0,30.15,East,95,0.0,0.0,82,0.00,,,0.00,,2013-08-27 03:22:00,
2013-08-26 22:44:00,74.0,68.0,30.15,East,94,0.0,0.0,81,0.00,,,0.00,,2013-08-27 03:44:00,
2013-08-26 22:58:00,74.0,68.0,30.16,East,94,0.0,0.0,81,0.00,,,0.00,,2013-08-27 03:58:00,
2013-08-26 23:18:00,73.0,68.0,30.16,East,95,0.0,0.0,83,0.00,,,0.00,,2013-08-27 04:18:00,
2013-08-26 23:47:00,72.0,67.0,30.16,East,94,0.0,0.0,83,0.00,,,0.00,,2013-08-27 04:47:00,
2013-08-26 23:54:00,72.0,67.0,30.16,East,95,0.0,0.0,84,0.00,,,0.00,,2013-08-27 04:54:00,